HIMAWARI-8

Last updated on Wed Sep 17 2025 00:02:22 GMT+0000 (Coordinated Universal Time)

1 40267U 14060A 25259.54423569 -.00000295 00000+0 00000+0 0 9996 2 40267 0.0237 212.9631 0000692 339.2249 140.1317 1.00270591 40002
UTC large
Height (km)
Speed (km/s)
/
Latitude / Longitude
Inclination (degrees)
Orbital Period (minutes)
Azimuth
Elevation
Range (km)
Doppler Factor

Next 0 passes for location: London (51.5072 / 0.1276)

Sorry there are no passes over London.